Regional Weather Roundup
Issued by NWS

Home | Current Version | Previous Version | Text Only | Print | Product List | Glossary Off
Versions: 1 2 3 4 5 6 7 8 9 10 11 12 13 14 15 16 17 18 19 20 21 22 23 24 25 26 27 28 29 30 31 32 33 34 35 36 37 38 39 40 41 42 43 44 45 46 47 48 49 50

000
ASUS43 KLOT 050006
RWRIL

ILLINOIS REGIONAL WEATHER ROUNDUP
NATIONAL WEATHER SERVICE CHICAGO/ROMEOVILLE IL
600 PM CST WED MAR 04 2015

NOTE: "FAIR" INDICATES FEW OR NO CLOUDS BELOW 12,000 FEET WITH NO
SIGNIFICANT WEATHER AND/OR OBSTRUCTIONS TO VISIBILITY.

* THESE STATIONS ARE NOT UNDER NWS QUALITY CONTROL. THEY ALSO MAY NOT
  REPORT WEATHER SUCH AS PRECIPITATION OR FOG.

ILZ001-002-007-009-015-016-024-050100-
NORTHWEST ILLINOIS

CITY           SKY/WX    TMP DP  RH WIND       PRES   REMARKS
MOLINE         PTCLDY    17   1  49 NW9       30.28R WCI   6
6HR MIN TEMP:  16; 6HR MAX TEMP:  20;

STERLING*      CLEAR     16   3  57 W12       30.27R WCI   3
SAVANNA*       CLEAR     15   0  50 W8        30.28R WCI   4
$$

ILZ003-004-008-010-011-017-018-050100-
NORTH CENTRAL ILLINOIS

CITY           SKY/WX    TMP DP  RH WIND       PRES   REMARKS
ROCKFORD       MOCLDY    14  -2  49 W12       30.27R WCI   0
6HR MIN TEMP:  14; 6HR MAX TEMP:  18;

FREEPORT*      CLEAR     13  -2  51 W10G20    30.27R WCI   0
ROCHELLE*      CLEAR     15   0  52 NW13      30.26R WCI   1
DE KALB*       FAIR      13   1  57 NW13      30.23R WCI  -1
PERU*          FAIR      17   6  61 W8        30.29R WCI   7
$$

ILZ005-006-012>014-019>023-050100-
NORTHEAST ILLINOIS

CITY           SKY/WX    TMP DP  RH WIND       PRES   REMARKS
CHICAGO-OHARE  MOCLDY    17  -2  43 NW13      30.22R WCI   4
6HR MIN TEMP:  17; 6HR MAX TEMP:  21;

CHICAGO-MIDWAY MOCLDY    20  -2  38 W13       30.24R WCI   7
6HR MIN TEMP:  20; 6HR MAX TEMP:  25;

AURORA         CLEAR     15   2  56 W12       30.25R WCI   2
6HR MIN TEMP:  15; 6HR MAX TEMP:  19;

LANSING*       MOCLDY    21  -2  37 NW10      30.21R WCI  10
JOLIET*        PTCLDY    16   3  55 NW8       30.26R WCI   6
WAUKEGAN       PTCLDY    16  -5  39 W6        30.20R WCI   7
6HR MIN TEMP:  16; 6HR MAX TEMP:  20;

DUPAGE AIRPORT PTCLDY    16   2  54 W10       30.23R WCI   4
6HR MIN TEMP:  16; 6HR MAX TEMP:  20; 6HR PCP: TRACE;

KANKAKEE*      MOCLDY    19   9  65 W10       30.26R WCI   7
WHEELING       PTCLDY    18  -2  41 W10       30.23R WCI   6
MORRIS*        PTCLDY    15   6  69 NW12      30.25R WCI   2
ROMEOVILLE*    PTCLDY    16   5  62 W12       30.25R WCI   2
NORTHERLY ISL    N/A     21  -1  38 W14         N/A  WCI   8
$$

LMZ740>746-050100-
SOUTHERN LAKE MICHIGAN

STATION/POSITION SKY/WX   TEMP    WIND        PRES    VSBY  WAVE
                          AIR SEA DIR/SP/G                  HT/PER
                          (F)     (DEG/KT/KT) (MB)    (MI)  (FT/S)
WAUKEGAN HARBOR            18                   N/A
HARRISON CRIB              20     310/ 18/ 21   N/A
BURNHAM HARBOR             20     280/  9/ 14   N/A
CALUMET HARBOR             20     280/  8/ 13 1021.7R
MICHIGAN CITY              19     290/ 13/ 16   N/A
$$

ILZ025>027-034>036-040-047-049-050-058-095>099-050100-
WEST-CENTRAL ILLINOIS

CITY           SKY/WX    TMP DP  RH WIND       PRES   REMARKS
QUINCY         PTCLDY    20   5  52 NE9       30.29S WCI   9
GALESBURG*     PTCLDY    15   5  65 N3        30.27S
MACOMB*        PTCLDY    16   8  71 N5        30.31S WCI   9
JACKSONVILLE*  CLOUDY    22   6  51 N9        30.29R WCI  11
PITTSFIELD*    CLOUDY    22   3  44 N5        30.31R WCI  16
$$

ILZ028>032-037-038-041>044-048-051>054-059>061-050100-
CENTRAL ILLINOIS

CITY           SKY/WX    TMP DP  RH WIND       PRES   REMARKS
PONTIAC        MOCLDY    19   8  62 NW9       30.28R WCI   7
BLOOMINGTON    CLOUDY    18   5  56 NW12      30.29R WCI   6
DECATUR        CLOUDY    19   5  54 N14       30.27R WCI   6
PEORIA         PTCLDY    19   2  47 N8        30.29R WCI   9
6HR MIN TEMP:  19; 6HR MAX TEMP:  23;

LACON*         CLEAR     16   4  58 NW8       30.29S WCI   5
LINCOLN*       CLOUDY    21   4  47 N9        30.32R WCI  11
SPRINGFIELD    CLOUDY    21   3  45 N13G18    30.30R WCI   9
6HR MIN TEMP:  19; 6HR MAX TEMP:  22; 6HR PCP: TRACE;

TAYLORVILLE    CLOUDY    19   9  63 N13       30.28S WCI   7
$$

ILZ033-039-045-046-055>057-062-063-050100-
EAST-CENTRAL ILLINOIS

CITY           SKY/WX    TMP DP  RH WIND       PRES   REMARKS
CHAMPAIGN      CLOUDY    17   8  67 NW15      30.25R WCI   2
DANVILLE*      MOCLDY    17   9  70 NW10      30.22R WCI   5
RANTOUL*       CLOUDY    19  10  69 NW12      30.26R WCI   6
MATTOON        CLOUDY    18   8  65 N17       30.24R WCI   3
PARIS*         CLOUDY    19  12  74 NW12      30.24F WCI   6
$$

ILZ079-100>102-050100-
SOUTHWEST ILLINOIS

CITY           SKY/WX    TMP DP  RH WIND       PRES   REMARKS
ALTON          CLOUDY    23   0  36 N12       30.30R WCI  12
BELLEVILLE     CLOUDY    22   7  51 N15       30.27R WCI   9
CAHOKIA*       CLOUDY    24   8  50 N14       30.30R WCI  12
SPARTA*        CLOUDY    20   8  57 N10G22    30.26F WCI   9
$$

ILZ064>066-069>071-074>076-080>082-084>086-088>090-092>094-050100-
SOUTH-CENTRAL ILLINOIS

CITY           SKY/WX    TMP DP  RH WIND       PRES   REMARKS
CARBONDALE     LGT SNOW  18  14  84 N13       30.24F VSB 3/4 WCI   5
6HR MIN TEMP:  18; 6HR MAX TEMP:  22; 6HR PCP:  0.11;

CAIRO*         LGT SNOW  23  22  96 N13       30.23R VSB 3/4 WCI  11
EFFINGHAM*     CLOUDY    21   7  54 NW10G17   30.28R WCI  10
MT. VERNON     CLOUDY    19  12  73 N5        30.24S WCI  13
CENTRALIA*     CLOUDY    21  10  62 N14       30.24S WCI   8
SALEM*         CLOUDY    22   9  57 N16G24    30.26R WCI   9
METROPOLIS*    SNOW      22  22 100 N9        30.20R VSB 1/2 WCI  11
$$

ILZ067-068-072-073-078-083-087-091-050100-
SOUTHEAST ILLINOIS

CITY           SKY/WX    TMP DP  RH WIND       PRES   REMARKS
LAWRENCEVILLE  CLOUDY    20   9  62 N20       30.24R WCI   4
FLORA*         CLOUDY    20  10  63 N12       30.26R WCI   8
FAIRFIELD*     LGT SNOW  19  15  86 N9        30.24R WCI   7
HARRISBURG*    SNOW      19  18  95 N8        30.25R VSB 1/2 WCI   9
ROBINSON*      CLOUDY    20  10  65 N14       30.25R WCI   7
CARMI*         LGT SNOW  21  19  93 CALM      30.24R VSB 1
$$

ABBREVIATIONS USED IN REMARKS
   TC - TEMPERATURE IN CELSIUS
  WCI - WIND CHILL INDEX
   HX - HEAT INDEX
  VSB - VISIBILITY
$$




USA.gov is the U.S. government's official web portal to all federal, state and local government web resources and services.